Time,TemperatureF,DewpointF,PressureIn,WindDirection,WindDirectionDegrees,WindSpeedMPH,WindSpeedGustMPH,Humidity,HourlyPrecipIn,Conditions,Clouds,dailyrainin,SoftwareType,DateUTC
2013-01-09 00:03:00,71.0,68.0,30.19,East,82,1.0,2.0,89,0.00,,,0.00,,2013-01-09 05:03:00,
2013-01-09 00:12:00,71.0,68.0,30.19,East,82,1.0,2.0,89,0.00,,,0.00,,2013-01-09 05:12:00,
2013-01-09 00:22:00,71.0,68.0,30.19,ENE,76,1.0,2.0,89,0.00,,,0.00,,2013-01-09 05:22:00,
2013-01-09 00:33:00,72.0,69.0,30.19,East,80,2.0,3.0,89,0.00,,,0.00,,2013-01-09 05:33:00,
2013-01-09 00:42:00,72.0,69.0,30.19,East,80,2.0,3.0,89,0.00,,,0.00,,2013-01-09 05:42:00,
2013-01-09 00:52:00,72.0,69.0,30.19,East,82,1.0,2.0,89,0.00,,,0.00,,2013-01-09 05:52:00,
2013-01-09 01:02:00,72.0,69.0,30.19,ENE,77,1.0,2.0,89,0.00,,,0.00,,2013-01-09 06:02:00,
2013-01-09 01:12:00,72.0,69.0,30.19,ENE,77,1.0,2.0,89,0.00,,,0.00,,2013-01-09 06:12:00,
2013-01-09 01:22:00,72.0,69.0,30.19,East,98,1.0,2.0,90,0.00,,,0.00,,2013-01-09 06:22:00,
2013-01-09 01:32:00,72.0,69.0,30.19,East,94,1.0,2.0,90,0.00,,,0.00,,2013-01-09 06:32:00,
2013-01-09 01:42:00,72.0,69.0,30.19,East,94,1.0,2.0,90,0.00,,,0.00,,2013-01-09 06:42:00,
2013-01-09 01:52:00,72.0,69.0,30.20,ENE,72,1.0,1.0,90,0.00,,,0.00,,2013-01-09 06:52:00,
2013-01-09 02:02:00,72.0,69.0,30.20,East,88,1.0,3.0,90,0.00,,,0.00,,2013-01-09 07:02:00,
2013-01-09 02:12:00,72.0,69.0,30.20,East,88,1.0,3.0,90,0.00,,,0.00,,2013-01-09 07:12:00,
2013-01-09 02:22:00,71.0,68.0,30.19,East,80,1.0,2.0,91,0.00,,,0.00,,2013-01-09 07:22:00,
2013-01-09 02:32:00,71.0,69.0,30.19,ENE,65,1.0,2.0,92,0.00,,,0.00,,2013-01-09 07:32:00,
2013-01-09 02:42:00,71.0,69.0,30.19,ENE,65,1.0,2.0,92,0.00,,,0.00,,2013-01-09 07:42:00,
2013-01-09 02:52:00,71.0,69.0,30.19,East,86,0.0,1.0,92,0.00,,,0.00,,2013-01-09 07:52:00,
2013-01-09 03:02:00,70.0,68.0,30.19,East,87,1.0,2.0,93,0.00,,,0.00,,2013-01-09 08:02:00,
2013-01-09 03:12:00,70.0,68.0,30.19,East,87,1.0,2.0,93,0.00,,,0.00,,2013-01-09 08:12:00,
2013-01-09 03:22:00,70.0,68.0,30.19,ENE,76,0.0,2.0,93,0.00,,,0.00,,2013-01-09 08:22:00,
2013-01-09 03:32:00,70.0,68.0,30.19,East,86,0.0,0.0,94,0.00,,,0.00,,2013-01-09 08:32:00,
2013-01-09 03:42:00,70.0,68.0,30.19,East,86,0.0,0.0,94,0.00,,,0.00,,2013-01-09 08:42:00,
2013-01-09 03:53:00,69.0,67.0,30.19,ENE,75,0.0,0.0,94,0.00,,,0.00,,2013-01-09 08:53:00,
2013-01-09 04:02:00,69.0,67.0,30.19,North,9,0.0,1.0,94,0.00,,,0.00,,2013-01-09 09:02:00,
2013-01-09 04:12:00,69.0,67.0,30.19,North,9,0.0,1.0,94,0.00,,,0.00,,2013-01-09 09:12:00,
2013-01-09 04:22:00,69.0,68.0,30.19,NE,53,0.0,1.0,95,0.00,,,0.00,,2013-01-09 09:22:00,
2013-01-09 04:32:00,68.0,67.0,30.19,ENE,73,0.0,1.0,95,0.00,,,0.00,,2013-01-09 09:32:00,
2013-01-09 04:42:00,68.0,67.0,30.19,ENE,73,0.0,1.0,95,0.00,,,0.00,,2013-01-09 09:42:00,
2013-01-09 04:53:00,68.0,67.0,30.19,ENE,72,0.0,1.0,96,0.00,,,0.00,,2013-01-09 09:53:00,
2013-01-09 05:02:00,68.0,67.0,30.18,East,86,0.0,2.0,96,0.00,,,0.00,,2013-01-09 10:02:00,
2013-01-09 05:12:00,68.0,67.0,30.18,East,86,0.0,2.0,96,0.00,,,0.00,,2013-01-09 10:12:00,
2013-01-09 05:22:00,68.0,67.0,30.18,East,86,0.0,2.0,96,0.00,,,0.00,,2013-01-09 10:22:00,
2013-01-09 05:32:00,68.0,67.0,30.19,East,80,0.0,1.0,96,0.00,,,0.00,,2013-01-09 10:32:00,
2013-01-09 05:42:00,68.0,67.0,30.19,East,80,0.0,1.0,96,0.00,,,0.00,,2013-01-09 10:42:00,
2013-01-09 05:52:00,68.0,67.0,30.19,East,79,0.0,0.0,97,0.00,,,0.00,,2013-01-09 10:52:00,
2013-01-09 06:02:00,69.0,68.0,30.19,East,79,0.0,0.0,97,0.00,,,0.00,,2013-01-09 11:02:00,
2013-01-09 06:12:00,69.0,68.0,30.19,East,79,0.0,0.0,97,0.00,,,0.00,,2013-01-09 11:12:00,
2013-01-09 06:22:00,69.0,68.0,30.20,ENE,73,0.0,0.0,97,0.00,,,0.00,,2013-01-09 11:22:00,
2013-01-09 06:33:00,69.0,68.0,30.20,East,98,1.0,2.0,97,0.00,,,0.00,,2013-01-09 11:33:00,
2013-01-09 06:42:00,69.0,68.0,30.20,East,98,1.0,2.0,97,0.00,,,0.00,,2013-01-09 11:42:00,
2013-01-09 06:53:00,69.0,68.0,30.21,East,86,1.0,2.0,97,0.00,,,0.00,,2013-01-09 11:53:00,
2013-01-09 07:03:00,69.0,68.0,30.21,East,89,1.0,2.0,97,0.00,,,0.00,,2013-01-09 12:03:00,
2013-01-09 07:12:00,69.0,68.0,30.21,East,89,1.0,2.0,97,0.00,,,0.00,,2013-01-09 12:12:00,
2013-01-09 07:23:00,69.0,68.0,30.22,East,85,0.0,3.0,97,0.00,,,0.00,,2013-01-09 12:23:00,
2013-01-09 07:33:00,69.0,68.0,30.22,ENE,78,1.0,2.0,97,0.00,,,0.00,,2013-01-09 12:33:00,
2013-01-09 07:43:00,69.0,68.0,30.22,ENE,78,1.0,2.0,97,0.00,,,0.00,,2013-01-09 12:43:00,
2013-01-09 07:53:00,69.0,68.0,30.22,ENE,73,0.0,2.0,97,0.00,,,0.00,,2013-01-09 12:53:00,
2013-01-09 08:03:00,69.0,68.0,30.23,East,91,0.0,2.0,97,0.00,,,0.00,,2013-01-09 13:03:00,
2013-01-09 08:12:00,69.0,68.0,30.23,East,91,0.0,2.0,97,0.00,,,0.00,,2013-01-09 13:12:00,
2013-01-09 08:23:00,69.0,68.0,30.24,East,96,1.0,3.0,97,0.00,,,0.00,,2013-01-09 13:23:00,
2013-01-09 08:33:00,69.0,68.0,30.25,ENE,72,1.0,2.0,97,0.00,,,0.00,,2013-01-09 13:33:00,
2013-01-09 08:43:00,69.0,68.0,30.25,ENE,72,1.0,2.0,97,0.00,,,0.00,,2013-01-09 13:43:00,
2013-01-09 08:53:00,70.0,69.0,30.25,ENE,73,1.0,2.0,97,0.00,,,0.00,,2013-01-09 13:53:00,
2013-01-09 09:03:00,71.0,70.0,30.26,ENE,63,2.0,4.0,96,0.00,,,0.00,,2013-01-09 14:03:00,
2013-01-09 09:12:00,71.0,70.0,30.26,ENE,63,2.0,4.0,96,0.00,,,0.00,,2013-01-09 14:12:00,
2013-01-09 09:23:00,71.0,69.0,30.26,ENE,76,1.0,4.0,95,0.00,,,0.00,,2013-01-09 14:23:00,
2013-01-09 09:33:00,72.0,70.0,30.27,ENE,72,2.0,3.0,95,0.00,,,0.00,,2013-01-09 14:33:00,
2013-01-09 09:43:00,72.0,70.0,30.27,ENE,72,2.0,3.0,95,0.00,,,0.00,,2013-01-09 14:43:00,
2013-01-09 09:53:00,73.0,71.0,30.27,East,96,1.0,2.0,94,0.00,,,0.00,,2013-01-09 14:53:00,
2013-01-09 10:03:00,74.0,71.0,30.28,SE,139,3.0,4.0,91,0.00,,,0.00,,2013-01-09 15:03:00,
2013-01-09 10:13:00,74.0,71.0,30.28,SE,139,3.0,4.0,91,0.00,,,0.00,,2013-01-09 15:13:00,
2013-01-09 10:23:00,75.0,72.0,30.29,East,95,1.0,4.0,90,0.00,,,0.00,,2013-01-09 15:23:00,
2013-01-09 10:33:00,75.0,71.0,30.29,East,90,3.0,6.0,88,0.00,,,0.00,,2013-01-09 15:33:00,
2013-01-09 10:43:00,75.0,71.0,30.29,East,90,3.0,6.0,88,0.00,,,0.00,,2013-01-09 15:43:00,
2013-01-09 10:53:00,76.0,72.0,30.29,ENE,70,3.0,5.0,87,0.00,,,0.00,,2013-01-09 15:53:00,
2013-01-09 11:03:00,77.0,72.0,30.29,ENE,74,2.0,4.0,85,0.00,,,0.00,,2013-01-09 16:03:00,
2013-01-09 11:12:00,77.0,72.0,30.29,ENE,74,2.0,4.0,85,0.00,,,0.00,,2013-01-09 16:12:00,
2013-01-09 11:23:00,77.0,72.0,30.28,East,91,2.0,8.0,84,0.00,,,0.00,,2013-01-09 16:23:00,
2013-01-09 11:33:00,78.0,72.0,30.28,East,86,3.0,7.0,81,0.00,,,0.00,,2013-01-09 16:33:00,
2013-01-09 11:43:00,78.0,72.0,30.28,East,86,3.0,7.0,81,0.00,,,0.00,,2013-01-09 16:43:00,
2013-01-09 11:53:00,79.0,72.0,30.28,South,185,2.0,7.0,80,0.00,,,0.00,,2013-01-09 16:53:00,
2013-01-09 12:03:00,80.0,72.0,30.27,WNW,283,2.0,4.0,78,0.00,,,0.00,,2013-01-09 17:03:00,
2013-01-09 12:12:00,80.0,72.0,30.27,WNW,283,2.0,4.0,78,0.00,,,0.00,,2013-01-09 17:12:00,
2013-01-09 12:23:00,80.0,72.0,30.26,East,86,2.0,5.0,76,0.00,,,0.00,,2013-01-09 17:23:00,
2013-01-09 12:33:00,79.0,72.0,30.26,East,79,1.0,4.0,78,0.00,,,0.00,,2013-01-09 17:33:00,
2013-01-09 12:43:00,79.0,72.0,30.26,East,79,1.0,4.0,78,0.00,,,0.00,,2013-01-09 17:43:00,
2013-01-09 12:53:00,81.0,72.0,30.24,East,96,2.0,7.0,74,0.00,,,0.00,,2013-01-09 17:53:00,
2013-01-09 13:03:00,81.0,71.0,30.24,ENE,63,2.0,5.0,72,0.00,,,0.00,,2013-01-09 18:03:00,
2013-01-09 13:12:00,81.0,71.0,30.24,ENE,63,2.0,5.0,72,0.00,,,0.00,,2013-01-09 18:12:00,
2013-01-09 13:24:00,81.0,71.0,30.23,East,79,3.0,5.0,71,0.00,,,0.00,,2013-01-09 18:24:00,
2013-01-09 13:33:00,81.0,70.0,30.23,SE,132,2.0,4.0,70,0.00,,,0.00,,2013-01-09 18:33:00,
2013-01-09 13:43:00,81.0,70.0,30.23,SE,132,2.0,4.0,70,0.00,,,0.00,,2013-01-09 18:43:00,
2013-01-09 13:53:00,82.0,70.0,30.22,ENE,68,2.0,4.0,68,0.00,,,0.00,,2013-01-09 18:53:00,
2013-01-09 14:03:00,82.0,70.0,30.22,ENE,65,3.0,8.0,67,0.00,,,0.00,,2013-01-09 19:03:00,
2013-01-09 14:13:00,82.0,70.0,30.22,ENE,65,3.0,8.0,67,0.00,,,0.00,,2013-01-09 19:13:00,
2013-01-09 14:23:00,81.0,69.0,30.22,East,94,3.0,5.0,67,0.00,,,0.00,,2013-01-09 19:23:00,
2013-01-09 14:33:00,83.0,70.0,30.22,ENE,72,1.0,3.0,65,0.00,,,0.00,,2013-01-09 19:33:00,
2013-01-09 14:43:00,83.0,70.0,30.22,ENE,72,1.0,3.0,65,0.00,,,0.00,,2013-01-09 19:43:00,
2013-01-09 14:53:00,83.0,70.0,30.21,ENE,70,1.0,3.0,64,0.00,,,0.00,,2013-01-09 19:53:00,
2013-01-09 15:03:00,83.0,70.0,30.21,East,89,1.0,2.0,64,0.00,,,0.00,,2013-01-09 20:03:00,
2013-01-09 15:12:00,83.0,70.0,30.21,East,89,1.0,2.0,64,0.00,,,0.00,,2013-01-09 20:12:00,
2013-01-09 15:23:00,83.0,70.0,30.21,ENE,65,1.0,3.0,65,0.00,,,0.00,,2013-01-09 20:23:00,
2013-01-09 15:33:00,83.0,69.0,30.21,East,84,2.0,3.0,62,0.00,,,0.00,,2013-01-09 20:33:00,
2013-01-09 15:43:00,83.0,69.0,30.21,East,84,2.0,3.0,62,0.00,,,0.00,,2013-01-09 20:43:00,
2013-01-09 15:53:00,83.0,69.0,30.21,SSW,210,1.0,2.0,62,0.00,,,0.00,,2013-01-09 20:53:00,
2013-01-09 16:03:00,83.0,69.0,30.21,NE,46,2.0,4.0,62,0.00,,,0.00,,2013-01-09 21:03:00,
2013-01-09 16:13:00,83.0,69.0,30.21,NE,46,2.0,4.0,62,0.00,,,0.00,,2013-01-09 21:13:00,
2013-01-09 16:23:00,83.0,69.0,30.21,East,101,1.0,3.0,62,0.00,,,0.00,,2013-01-09 21:23:00,
2013-01-09 16:33:00,82.0,68.0,30.21,East,91,1.0,4.0,63,0.00,,,0.00,,2013-01-09 21:33:00,
2013-01-09 16:43:00,82.0,68.0,30.21,East,91,1.0,4.0,63,0.00,,,0.00,,2013-01-09 21:43:00,
2013-01-09 16:53:00,82.0,68.0,30.21,East,85,1.0,2.0,62,0.00,,,0.00,,2013-01-09 21:53:00,
2013-01-09 17:03:00,83.0,69.0,30.21,East,79,1.0,2.0,62,0.00,,,0.00,,2013-01-09 22:03:00,
2013-01-09 17:12:00,83.0,69.0,30.21,East,79,1.0,2.0,62,0.00,,,0.00,,2013-01-09 22:12:00,
2013-01-09 17:23:00,82.0,70.0,30.21,SW,217,0.0,3.0,68,0.00,,,0.00,,2013-01-09 22:23:00,
2013-01-09 17:33:00,81.0,70.0,30.21,SW,221,0.0,3.0,69,0.00,,,0.00,,2013-01-09 22:33:00,
2013-01-09 17:43:00,81.0,70.0,30.21,SW,221,0.0,3.0,69,0.00,,,0.00,,2013-01-09 22:43:00,
2013-01-09 17:53:00,80.0,68.0,30.21,East,94,0.0,2.0,66,0.00,,,0.00,,2013-01-09 22:53:00,
2013-01-09 18:03:00,80.0,68.0,30.21,ESE,122,0.0,2.0,67,0.00,,,0.00,,2013-01-09 23:03:00,
2013-01-09 18:13:00,80.0,68.0,30.21,ESE,122,0.0,2.0,67,0.00,,,0.00,,2013-01-09 23:13:00,
2013-01-09 18:23:00,79.0,68.0,30.22,East,85,0.0,1.0,68,0.00,,,0.00,,2013-01-09 23:23:00,
2013-01-09 18:33:00,78.0,67.0,30.22,East,91,0.0,1.0,69,0.00,,,0.00,,2013-01-09 23:33:00,
2013-01-09 18:43:00,78.0,67.0,30.22,East,91,0.0,1.0,69,0.00,,,0.00,,2013-01-09 23:43:00,
2013-01-09 18:53:00,78.0,67.0,30.23,East,91,0.0,0.0,70,0.00,,,0.00,,2013-01-09 23:53:00,
2013-01-09 19:03:00,77.0,67.0,30.23,East,91,0.0,0.0,71,0.00,,,0.00,,2013-01-10 00:03:00,
2013-01-09 19:12:00,77.0,67.0,30.23,East,91,0.0,0.0,71,0.00,,,0.00,,2013-01-10 00:12:00,
2013-01-09 19:22:00,76.0,67.0,30.23,East,83,0.0,1.0,73,0.00,,,0.00,,2013-01-10 00:22:00,
2013-01-09 19:32:00,77.0,67.0,30.24,ENE,78,0.0,1.0,72,0.00,,,0.00,,2013-01-10 00:32:00,
2013-01-09 19:42:00,77.0,67.0,30.24,ENE,78,0.0,1.0,72,0.00,,,0.00,,2013-01-10 00:42:00,
2013-01-09 19:53:00,77.0,67.0,30.24,East,89,1.0,1.0,71,0.00,,,0.00,,2013-01-10 00:53:00,
2013-01-09 20:02:00,76.0,66.0,30.24,East,80,1.0,2.0,71,0.00,,,0.00,,2013-01-10 01:02:00,
2013-01-09 20:12:00,76.0,66.0,30.24,East,80,1.0,2.0,71,0.00,,,0.00,,2013-01-10 01:12:00,
2013-01-09 20:22:00,76.0,66.0,30.24,ESE,102,0.0,2.0,72,0.00,,,0.00,,2013-01-10 01:22:00,
2013-01-09 20:33:00,75.0,66.0,30.25,ENE,78,0.0,1.0,73,0.00,,,0.00,,2013-01-10 01:33:00,
2013-01-09 20:43:00,75.0,66.0,30.25,ENE,78,0.0,1.0,73,0.00,,,0.00,,2013-01-10 01:43:00,
2013-01-09 20:53:00,75.0,66.0,30.25,East,79,1.0,2.0,74,0.00,,,0.00,,2013-01-10 01:53:00,
2013-01-09 21:03:00,75.0,66.0,30.26,East,98,1.0,3.0,74,0.00,,,0.00,,2013-01-10 02:03:00,
2013-01-09 21:12:00,75.0,66.0,30.26,East,98,1.0,3.0,74,0.00,,,0.00,,2013-01-10 02:12:00,
2013-01-09 21:22:00,75.0,67.0,30.27,ENE,71,2.0,3.0,76,0.00,,,0.00,,2013-01-10 02:22:00,
2013-01-09 21:32:00,75.0,68.0,30.27,ESE,102,2.0,4.0,79,0.00,,,0.00,,2013-01-10 02:32:00,
2013-01-09 21:43:00,75.0,68.0,30.27,ESE,102,2.0,4.0,79,0.00,,,0.00,,2013-01-10 02:43:00,
2013-01-09 21:53:00,75.0,68.0,30.27,ESE,102,2.0,4.0,79,0.00,,,0.00,,2013-01-10 02:53:00,
2013-01-09 22:03:00,75.0,69.0,30.28,East,84,2.0,4.0,82,0.00,,,0.00,,2013-01-10 03:03:00,
2013-01-09 22:12:00,75.0,69.0,30.28,East,84,2.0,4.0,82,0.00,,,0.00,,2013-01-10 03:12:00,
2013-01-09 22:22:00,75.0,70.0,30.28,East,82,1.0,3.0,84,0.00,,,0.00,,2013-01-10 03:22:00,
2013-01-09 22:33:00,74.0,69.0,30.29,East,94,2.0,3.0,85,0.00,,,0.00,,2013-01-10 03:33:00,
2013-01-09 22:43:00,74.0,69.0,30.29,East,94,2.0,3.0,85,0.00,,,0.00,,2013-01-10 03:43:00,
2013-01-09 22:53:00,74.0,70.0,30.29,East,95,2.0,4.0,86,0.00,,,0.00,,2013-01-10 03:53:00,
2013-01-09 23:02:00,73.0,69.0,30.29,East,83,1.0,3.0,87,0.00,,,0.00,,2013-01-10 04:02:00,
2013-01-09 23:12:00,73.0,69.0,30.29,East,83,1.0,3.0,87,0.00,,,0.00,,2013-01-10 04:12:00,
2013-01-09 23:22:00,73.0,69.0,30.29,East,96,1.0,3.0,88,0.00,,,0.00,,2013-01-10 04:22:00,
2013-01-09 23:32:00,72.0,69.0,30.29,East,86,1.0,2.0,89,0.00,,,0.00,,2013-01-10 04:32:00,
2013-01-09 23:43:00,72.0,69.0,30.29,East,86,1.0,2.0,89,0.00,,,0.00,,2013-01-10 04:43:00,
2013-01-09 23:53:00,72.0,69.0,30.29,East,90,1.0,2.0,90,0.00,,,0.00,,2013-01-10 04:53:00,